Weather in Karabalyk

Kazakhstan     53°45′08″N   62°03′17″E
temp.,
°C
wind,
m/s
gust,
m/s
humid.,
%
clouds,
%
prec.,
mm/h
press.,
hPa
HPBL,
m
24 may, tue
tue2400:00+11s41093100 2.4 1005221
03:00+12s51092100 0.6 1006299
06:00+11s359278 0.9 100787
09:00+15se4682100 0.5 1007351
12:00+19s7105898 0.5 1006827
15:00+23ssw8114363 0.0 10071543
18:00+24ssw51144100 0.0 10072418
21:00+20sse4660100 0.0 1007105
25 may, wed
wed2500:00+18sse61653100 0.0 1008300
03:00+16sse51457100 0.0 1008248
06:00+15sse51452100 0.0 1007260
09:00+17s6135498 0.0 1007471
12:00+23se5741100 0.0 1007679
15:00+23sse71241100 0.0 10071333
18:00+24s91342100 0.0 10062038
21:00+20sw48635 0.0 1007197
26 may, thu
thu2600:00+12wnw51070100 0.0 1009329
03:00+11nw61180100 0.1 1008378
06:00+10nw5878100 0.2 1010354
09:00+11nnw6879100 0.4 1008538
12:00+10nnw71188100 1.6 1009629
15:00+9nnw71185100 0.6 1011780
18:00+9nw41184100 1.3 1011677
21:00+12wnw4967100 0.0 1012307
27 may, fri
fri2700:00+8wnw411815 0.0 1014217
03:00+7nw4118085 0.0 1015236
06:00+6wnw358472 0.0 1016114
09:00+10wnw346413 0.0 1017401
12:00+14wsw3450100 0.0 10171344
15:00+16wsw454431 0.0 10161871
18:00+17sw454469 0.0 10151967
21:00+15sw3458100 0.0 101577
28 may, sat
sat2800:00+13sw386760 0.0 1015248
03:00+10ssw37837 0.0 1015144
06:00+9sw378719 0.0 1015141
09:00+14ssw4766100 0.0 1015395
12:00+17ssw675489 0.0 10141178
15:00+18sw81054100 0.3 10151748
18:00+18sw675981 1.1 10141457
21:00+16w22662 0.3 101529